This demonstration page uses our WeatherBlox Daily Observations layout. Learn more.

Left ArrowRight Arrow

Hourly Observations for September 16, 2015

Temp ( °F °C ) Dew Point ( °F °C ) Humidity (%) Winds ( mph kmh ) Pressure ( in mb ) Visibility ( mi km ) Precip ( " mm )
12:52 am 00:52 Mostly Clear 72 22.2 63 17.2 73 73 SSE 17 28 29.90 1013 10 16 0.00 0.00
1:52 am 01:52 Mostly Clear 71 21.7 63 17.2 76 76 S 15 24 29.91 1013 10 16 0.00 0.00
2:52 am 02:52 Partly Cloudy 70 21.1 63 17.2 79 79 S 13 20 29.92 1013 10 16 0.00 0.00
3:52 am 03:52 Mostly Clear 69 20.6 63 17.2 81 81 SSE 15 24 29.91 1013 10 16 0.00 0.00
4:52 am 04:52 Mostly Clear 69 20.6 64 17.8 84 84 SSE 17 28 29.90 1012 10 16 0.00 0.00
5:52 am 05:52 Mostly Clear 68 20 64 17.8 87 87 SSE 16 26 29.90 1012 10 16 0.00 0.00
6:52 am 06:52 Mostly Clear 69 20.6 65 18.3 87 87 S 22 35 29.91 1013 10 16 0.00 0.00
7:52 am 07:52 Partly Cloudy 69 20.6 65 18.3 87 87 SSE 16 26 29.92 1013 10 16 0.00 0.00
8:52 am 08:52 Partly Cloudy 72 22.2 66 18.9 82 82 SSE 20 31 29.92 1013 10 16 0.00 0.00
9:52 am 09:52 Mostly Cloudy 75 23.9 67 19.4 76 76 S 24 39 29.90 1013 10 16 0.00 0.00
10:32 am 10:32 Mostly Cloudy 75 24 68 20 78 78 S 22 35 29.91 1013 10 16 0.00 0.00
10:52 am 10:52 Mostly Cloudy 76 24.4 68 20 77 77 S 21 33 29.91 1013 10 16 0.00 0.00
11:20 am 11:20 Mostly Cloudy 79 26 68 20 70 70 S 20 31 29.88 1012 10 16 0.00 0.00
11:52 am 11:52 Partly Cloudy 81 27.2 69 20.6 67 67 SSE 22 35 29.89 1012 10 16 0.00 0.00
12:52 pm 12:52 Partly Cloudy 84 28.9 70 21.1 63 63 SSE 21 33 29.86 1011 10 16 0.00 0.00
1:52 pm 13:52 Partly Cloudy 86 30 70 21.1 59 59 SSE 25 41 29.83 1010 10 16 0.00 0.00
2:52 pm 14:52 Partly Cloudy 88 31.1 70 21.1 55 55 SSE 23 37 29.81 1010 10 16 0.00 0.00
3:52 pm 15:52 Partly Cloudy 89 31.7 69 20.6 52 52 S 25 41 29.80 1009 10 16 0.00 0.00
4:52 pm 16:52 Partly Cloudy 89 31.7 69 20.6 52 52 S 22 35 29.78 1009 10 16 0.00 0.00
5:52 pm 17:52 Mostly Cloudy 86 30 70 21.1 59 59 S 21 33 29.79 1009 10 16 0.00 0.00
6:52 pm 18:52 Mostly Cloudy 84 28.9 70 21.1 63 63 SSE 17 28 29.78 1009 10 16 0.00 0.00
7:52 pm 19:52 Mostly Cloudy 83 28.3 70 21.1 65 65 SSE 16 26 29.78 1009 10 16 0.00 0.00
8:52 pm 20:52 Partly Cloudy 82 27.8 69 20.6 65 65 SSE 21 33 29.79 1009 10 16 0.00 0.00
9:52 pm 21:52 Partly Cloudy 81 27.2 70 21.1 69 69 S 23 37 29.81 1009 10 16 0.00 0.00
10:52 pm 22:52 Mostly Clear 80 26.7 70 21.1 71 71 SSE 25 41 29.81 1009 10 16 0.00 0.00
11:52 pm 23:52 Mostly Clear 79 26.1 70 21.1 74 74 SSE 21 33 29.80 1009 10 16 0.00 0.00

Powered by AerisWeather